SCP
0 0 0 0 0 0 0 0 0 0 0 0 0 0 0 0 0 0 0 0 0 0 0 0 0 0 0 0 0 0 0 0 0 0 0 0 0 0 0 0 0 0 0
0 0 0 0 0 0 0 0 0 0 0 0 0 0 0 0 0 0 0 0 0 0 0 0 0 0 0 0 0 0 0 0 0 0 0 0 0 0 0 0 0 0 0
0 0 0 0 0 0 0 0 0 0 0 0 0 0 0 0 0 0 0 0 0 0 0 0 0 0 0 0 0 0 0 0 0 0 0 0 0 0 0 0 0 0 0
0 0 0 0 0 0 0 0 0 0 0 0 0 0 0 0 0 0 0 0 0 0 0 0 0 0 0 0 0 0 0 0 0 0 0 0 0 0 0 0 0 0 0
0 0 0 0 0 0 0 0 0 0 0 0 0 0 0 0 0 0 0 0 0 0 0 0 0 0 0 0 0 0 0 0 0 0 0 0 0 0 0 0 0 0 0
0 0 0 0 0 0 0 0 0 0 0 0 0 0 0 0 0 0 0 0 0 0 0 0 0 0 0 0 0 0 0 0 0 0 0 0 0 0 0 0 0 0 0
0 0 0 0 0 0 0 0 0 0 0 0 0 0 0 0 0 0 0 0 0 0 0 0 0 0 0 0 0 0 0 0 0 0 0 0 0 0 0 0 0 0 0
0 0 0 0 0 0 0 0 0 0 0 0 0 0 0 0 0 0 0 0 0 0 0 0 0 0 0 0 0 0 0 0 0 0 0 0 0 0 0 0 0 0 0
0 0 0 0 0 0 0 0 0 0 0 0 0 0 0 0 0 0 0 0 0 0 0 0 0 0 0 0 0 0 0 0 0 0 0 0 0 0 0 0 0 0 0
0 0 0 0 0 0 0 0 0 0 0 0 0 0 0 0 0 0 0 0 0 0 0 0 0 0 0 0 0 0 0 0 0 0 0 0 0 0 0 0 0 0 0
0 0 0 0 0 0 0 0 0 0 0 0 0 0 0 0 0 0 0 0 0 0 0 0 0 0 0 0 0 0 0 0 0 0 0 0 0 0 0 0 0 0 0
0 0 0 0 0 0 0 0 0 0 0 0 0 0 0 0 0 0 0 0 0 0 0 0 0 0 0 0 0 0 0 0 0 0 0 0 0 0 0 0 0 0 0
0 0 0 0 0 0 0 0 0 0 0 0 0 0 0 0 0 0 0 0 0 0 0 0 0 0 0 0 0 0 0 0 0 0 0 0 0 0 0 0 0 0 0
0 0 0 0 0 0 0 0 0 0 0 0 0 0 0 0 0 0 0 0 0 0 0 0 0 0 0 0 0 0 0 0 0 0 0 0 0 0 0 0 0 0 0
0 0 0 0 0 0 0 0 0 0 0 0 0 0 0 0 0 0 0 0 0 0 0 0 0 0 0 0 0 0 0 0 0 0 0 0 0 0 0 0 0 0 0
0 0 0 0 0 0 0 0 0 0 0 0 0 0 0 0 0 0 0 0 0 0 0 0 0 0 0 0 0 0 0 0 0 0 0 0 0 0 0 0 0 0 0
0 0 0 0 0 0 0 0 0 0 0 0 0 0 0 0 0 0 0 0 0 0 0 0 0 0 0 0 0 0 0 0 0 0 0 0 0 0 0 0 0 0 0
0 0 0 0 0 0 0 0 0 0 0 0 0 0 0 0 0 0 0 0 0 0 0 0 0 0 0 0 0 0 0 0 0 0 0 0 0 0 0 0 0 0 0
0 0 0 0 0 0 0 0 0 0 0 0 0 0 0 0 0 0 0 0 0 0 0 0 0 0 0 0 0 0 0 0 0 0 0 0 0 0 0 0 0 0 0
0 0 0 0 0 0 0 0 0 0 0 0 0 0 0 0 0 0 0 0 0 0 0 0 0 0 0 0 0 0 0 0 0 0 0 0 0 0 0 0 0 0 0
0 0 0 0 0 0 0 0 0 0 0 0 0 0 0 0 0 0 0 0 0 0 0 0 0 0 0 0 0 0 0 0 0 0 0 0 0 0 0 0 0 0 0
0 0 0 0 0 0 0 0 0 0 0 0 0 0 0 0 0 0 0 0 0 0 0 0 0 0 0 0 0 0 0 0 0 0 0 0 0 0 0 0 0 0 0
0 0 0 0 0 0 0 0 0 0 0 0 0 0 0 0 0 0 0 0 0 0 0 0 0 0 0 0 0 0 0 0 0 0 0 0 0 0 0 0 0 0 0
0 0 0 0 0 0 0 0 0 0 0 0 0 0 0 0 0 0 0 0 0 0 0 0 0 0 0 0 0 0 0 0 0 0 0 0 0 0 0 0 0 0 0
0 0 0 0 0 0 0 0 0 0 0 0 0 0 0 0 0 0 0 0 0 0 0 0 0 0 0 0 0 0 0 0 0 0 0 0 0 0 0 0 0 0 0
0 0 0 0 0 0 0 0 0 0 0 0 0 0 0 0 0 0 0 0 0 0 0 0 0 0 0 0 0 0 0 0 0 0 0 0 0 0 0 0 0 0 0
Wind_Speed
5 4 4 5 5 6 6 7 7 8 8 8 9 9 10 10 10 10 11 11 12 12 11 12 14 13 10 9 9 9 10 10 11 9 7 7 9 9 8 8 8 8 8
5 5 5 5 5 6 6 7 7 8 8 8 8 9 9 9 10 11 12 12 13 13 12 12 13 10 12 10 9 11 10 11 11 12 8 7 9 9 8 8 7 6 7
5 5 5 5 6 6 7 7 7 8 8 8 8 9 9 9 10 10 11 11 12 12 12 13 13 12 13 11 11 11 9 9 10 10 9 7 6 6 7 7 7 6 6
6 6 6 6 7 7 7 7 7 8 8 8 8 8 9 10 10 10 10 11 11 12 12 12 12 12 13 12 10 11 10 10 10 9 9 7 6 5 5 6 5 5 5
7 7 7 7 7 7 7 7 7 8 8 8 8 9 9 9 8 9 10 10 11 11 11 11 11 12 13 11 9 9 9 9 9 8 8 6 6 4 6 5 6 5 5
7 7 7 8 8 8 8 8 8 8 8 8 9 9 10 8 9 10 10 10 10 10 10 10 9 10 10 11 12 11 11 10 9 8 8 8 9 7 6 5 5 4 5
7 7 7 8 8 8 8 8 8 8 8 8 9 9 9 10 10 11 10 10 9 9 9 8 7 7 8 8 8 9 10 11 12 10 9 9 9 8 7 7 6 6 5
7 7 8 8 8 8 9 9 8 7 7 8 8 9 9 9 10 10 10 9 9 8 8 9 8 8 7 7 7 7 7 8 8 8 8 8 7 6 6 6 5 4 1
7 8 8 8 8 8 9 8 7 7 7 8 7 8 9 9 9 9 8 7 6 7 7 7 7 8 7 6 6 6 6 6 4 5 5 5 4 4 4 3 3 3 3
8 9 8 8 8 8 8 8 7 7 7 7 7 7 8 9 8 8 7 5 5 5 5 6 7 7 7 6 6 6 6 5 4 3 3 3 3 3 4 4 4 4 2
9 9 8 8 8 8 8 7 7 7 7 7 8 7 8 7 7 7 7 4 4 5 4 4 4 5 5 5 5 5 5 3 3 2 2 2 2 2 2 1 2 3 3
8 8 8 8 7 6 7 7 6 6 7 6 6 6 5 5 5 5 6 6 6 5 5 4 3 4 4 5 4 3 3 2 1 2 1 1 1 1 0 0 1 0 0
8 8 7 7 6 6 6 6 6 5 5 5 5 5 5 5 5 6 6 6 7 5 4 4 5 4 4 4 3 3 2 2 2 2 2 1 0 1 1 1 2 3 3
8 7 7 6 6 6 5 5 5 4 4 4 5 5 5 5 5 5 4 4 4 4 4 3 3 3 2 2 2 2 2 2 2 2 1 1 1 1 1 1 1 1 1
7 6 6 6 5 5 5 5 6 5 5 6 5 5 5 6 7 9 7 4 4 3 3 2 2 2 1 1 0 0 1 1 1 1 2 2 2 2 1 1 1 0 1
6 5 5 5 4 4 5 5 6 7 9 9 9 8 6 8 11 11 10 8 7 5 3 1 1 1 1 0 0 0 1 1 1 2 2 2 2 2 1 1 1 1 2
6 5 5 4 5 5 5 5 5 6 6 7 8 9 9 10 10 10 9 7 5 3 1 1 1 1 1 0 0 1 1 1 1 2 2 2 2 2 2 2 2 1 1
6 5 5 4 4 4 4 4 5 5 6 5 6 8 9 9 9 9 7 5 3 3 2 1 1 1 1 0 0 1 1 1 2 2 2 2 2 2 2 2 1 1 1
5 4 4 4 4 4 4 4 4 5 5 5 6 6 8 8 8 8 6 3 3 3 2 2 2 1 1 0 0 1 1 1 1 2 2 2 2 2 2 2 2 2 2
4 5 5 4 4 4 4 4 4 4 4 5 5 5 6 6 5 5 5 4 3 3 3 2 2 2 1 1 1 1 1 1 2 1 1 2 2 2 2 2 2 2 1
4 4 5 4 3 3 3 3 3 4 4 5 5 5 8 5 4 5 4 4 4 3 3 2 2 2 1 1 1 1 1 1 1 1 1 1 2 2 2 2 2 2 2
3 3 3 3 3 3 3 3 3 4 4 5 4 5 7 4 4 4 4 4 4 3 3 3 2 2 2 1 0 0 1 1 1 2 2 2 2 2 2 2 2 2 2
3 3 3 3 3 4 4 3 3 3 4 4 4 4 4 4 4 4 4 4 4 4 3 3 3 2 2 2 1 0 1 1 1 2 3 2 2 2 2 3 3 2 2
3 3 3 3 3 3 3 3 3 3 3 4 4 4 4 4 4 4 4 4 3 3 3 3 3 3 4 3 2 1 1 0 1 2 3 3 3 2 2 2 2 3 2
3 3 3 3 3 3 3 3 3 3 3 3 3 3 3 3 4 4 4 3 4 4 4 4 3 3 4 4 3 2 1 1 1 1 2 3 3 3 3 3 2 3 2
3 3 3 3 2 3 3 3 3 3 3 3 3 3 3 3 3 3 3 3 3 3 4 4 4 4 4 3 2 2 2 2 2 2 2 3 3 3 3 2 3 3 3
Wind_Direction
306 299 294 293 292 287 283 280 280 273 269 267 266 265 262 261 258 254 249 244 242 243 238 236 236 235 235 233 231 230 232 234 248 257 256 251 245 244 241 243 244 242 236
306 300 298 299 295 289 288 289 287 282 276 272 269 266 264 263 262 258 255 248 245 243 242 241 242 239 238 237 234 233 232 233 240 251 252 248 248 246 248 244 241 241 245
304 299 299 299 297 294 294 297 296 290 284 275 268 265 265 265 264 261 259 253 249 248 245 241 241 240 240 238 237 236 235 236 237 246 250 247 249 245 250 251 248 246 246
305 299 298 300 300 299 297 296 296 293 287 283 275 270 269 266 262 260 262 259 253 251 249 247 244 240 240 239 238 239 238 238 238 241 245 245 247 244 237 241 244 241 241
309 301 298 299 299 298 296 296 295 292 289 285 283 276 269 265 263 263 265 263 258 255 253 251 248 245 244 242 240 240 240 239 237 237 241 241 237 227 229 229 239 241 244
311 307 305 302 300 299 299 297 293 291 290 287 282 279 273 267 274 272 272 266 262 258 256 256 255 247 246 244 243 241 240 241 240 240 239 238 239 234 226 222 224 231 240
312 308 308 305 301 300 299 297 295 292 291 287 285 283 280 279 281 276 275 269 265 261 258 256 257 252 249 247 247 243 244 245 243 243 245 242 238 232 222 221 220 224 234
309 309 309 307 302 301 299 296 295 292 289 287 286 284 283 285 291 288 281 270 266 264 260 253 252 252 246 247 247 244 245 246 244 241 242 247 241 233 224 222 215 214 249
307 308 309 307 305 305 301 298 296 293 290 288 286 285 285 287 293 294 290 278 270 268 265 256 251 253 248 240 240 241 246 249 245 240 242 241 235 224 210 184 182 192 223
309 309 308 307 303 301 301 302 301 299 295 294 290 285 286 288 293 295 294 282 278 276 273 264 251 251 248 232 234 234 239 246 238 242 251 241 228 217 205 205 199 202 210
309 307 307 306 303 301 302 301 302 303 299 296 295 289 286 286 291 297 299 287 281 282 279 276 270 261 251 238 239 240 237 240 233 224 229 238 231 226 238 240 228 214 211
308 306 307 310 309 306 306 305 301 301 299 299 298 299 300 298 298 302 302 298 299 283 279 282 281 279 257 245 239 233 215 221 218 201 208 224 226 221 160 92 95 75 333
306 307 311 313 311 307 304 304 301 303 302 305 305 306 312 315 315 316 309 304 303 294 285 284 289 285 269 246 236 229 204 206 200 195 198 223 225 161 126 102 83 79 61
306 309 311 311 313 313 309 306 306 303 301 304 308 310 312 313 317 322 314 309 307 299 298 293 290 286 270 249 246 220 211 198 186 181 170 133 104 114 115 110 114 115 95
308 309 310 310 310 312 314 313 311 305 302 304 305 305 306 308 315 317 315 311 308 304 309 308 312 318 323 308 236 141 153 149 142 130 134 130 124 113 96 74 83 74 126
305 309 310 308 307 308 309 313 319 313 318 315 314 311 309 311 319 318 319 318 314 306 301 295 310 308 291 258 180 160 145 145 137 126 128 134 138 143 133 101 90 111 118
299 301 301 301 303 305 308 311 317 324 322 321 324 325 322 323 324 325 326 325 328 325 336 340 323 313 301 294 127 112 100 110 120 125 131 137 137 139 132 126 122 113 114
299 298 298 297 299 301 304 308 312 316 321 327 333 333 332 332 334 336 339 345 357 6 4 360 343 333 332 327 77 106 105 105 110 122 133 144 145 144 140 136 138 136 133
301 301 300 299 299 300 304 307 308 311 315 319 324 332 340 342 346 353 355 358 357 350 350 349 346 344 346 23 55 95 111 120 122 131 142 151 152 149 142 142 144 139 127
299 303 303 301 299 300 302 305 309 313 316 317 321 328 335 340 347 349 353 355 354 349 347 351 355 359 1 25 89 110 112 118 125 131 148 150 147 141 140 144 143 143 126
302 300 302 300 297 298 300 303 308 311 312 315 320 327 333 334 336 338 340 345 348 346 346 351 355 0 3 18 58 108 127 135 137 142 141 139 138 131 134 141 133 124 120
299 299 301 300 300 298 300 303 304 306 312 315 321 328 333 335 336 337 340 342 345 349 349 349 352 352 349 349 27 138 163 171 168 159 147 140 136 139 141 139 136 134 136
305 304 301 296 292 297 301 300 302 307 312 318 321 326 331 335 336 337 340 342 344 349 353 353 355 358 2 357 351 321 200 206 194 174 158 153 149 148 149 147 150 152 150
306 302 300 301 300 299 301 305 311 315 319 321 322 325 329 333 335 339 341 342 346 350 353 354 358 360 1 2 4 6 17 58 132 158 165 161 156 149 145 146 151 154 154
304 303 304 304 305 306 307 309 313 317 318 319 322 326 331 335 337 339 343 349 353 357 358 356 359 3 9 8 7 15 52 59 82 132 145 143 143 144 147 148 151 149 151
308 308 306 305 303 303 302 304 309 312 313 318 322 324 329 334 337 341 345 351 354 355 355 357 2 2 1 10 23 39 46 66 97 114 129 133 138 144 147 145 151 153 154